Regional Weather Roundup
Issued by NWS

Home | Current Version | Previous Version | Graphics & Text | Print | Product List | Glossary On
Versions: 1 2 3 4 5 6 7 8 9 10 11 12 13 14 15 16 17 18 19 20 21 22 23 24 25 26 27 28 29 30 31 32 33 34 35 36 37 38 39 40 41 42 43 44 45 46 47 48 49 50
411
ASUS45 KABQ 251101
RWRNM
NEW MEXICO REGIONAL WEATHER ROUNDUP
NATIONAL WEATHER SERVICE ALBUQUERQUE NM
400 AM MST SAT FEB 25 2017

NOTE: "FAIR" MEANS FEW OR NO CLOUDS BELOW 12,000 FEET AGL WITH NO
       SIGNIFICANT WEATHER OR OBSTRUCTIONS TO VISION.

      THIS PRODUCT IS RELEASED AS TWO VERSIONS.  ONE VERSION NEAR
      THE TOP OF THE HOUR CONTAINING PRELIMINARY DATA FROM ALBUQUERQUE
      AND OTHER STATIONS.  A FINAL VERSION WITH ADDITIONAL DATA IS
      ISSUED ABOUT 10 MINUTES AFTER THE HOUR.

NMZ501-503-504-510>518-251200-
NORTHWEST PLATEAU/NORTHCENTRAL MOUNTAINS

CITY           SKY/WX    TMP DP  RH WIND       PRES   REMARKS
FARMINGTON     FAIR      16  10  77 CALM      30.07S
LOS ALAMOS     FAIR      22  -2  35 SW5       30.03S WCI  16
SANTA FE       FAIR      16   1  51 VRB3      30.03S
TAOS           FAIR      14  -2  48 W5        30.02S WCI   6
ANGEL FIRE     FAIR       7   3  84 CALM      29.97S

$$
NMZ402-403-502-505>509-251200-
WESTCENTRAL MOUNTAINS/SOUTHWEST MOUNTAINS

CITY           SKY/WX    TMP DP  RH WIND       PRES   REMARKS
GALLUP         FAIR      15   6  67 NE3       30.07S
GRANTS         FAIR      11   2  68 NW7       30.08S WCI   0
SILVER CITY    FAIR      24  13  61 NW6       30.09F WCI  17

$$
NMZ407-409-411-412-251200-
SOUTHERN DESERTS

CITY           SKY/WX    TMP DP  RH WIND       PRES   REMARKS
DEMING         FAIR      32  14  47 W9        30.08F WCI  24
LAS CRUCES     FAIR      35   5  28 SW3       30.07S
HOLLOMAN AFB   FAIR      31   9  39 CALM      30.09S
ALAMOGORDO     FAIR      32   7  34 CALM      30.06S
T OR C         FAIR      32  13  45 W5        30.05F WCI  27

$$
NMZ519>523-251200-
CENTRAL VALLEYS/CENTRAL HIGHLANDS

CITY           SKY/WX    TMP DP  RH WIND       PRES   REMARKS
ALBUQUERQUE    FAIR      26   0  32 CALM      30.07F
DOUBLE EAGLE   FAIR      17   3  54 NW6       30.07S WCI   9
MORIARTY ARPT  FAIR       8   0  69 NE3       30.05F
CLINES CORNERS FAIR      15  -1  49 W12       30.02F WCI   2
BELEN          FAIR      25   0  34 CALM      30.08F
SOCORRO        FAIR      32   6  33 N7        30.08S WCI  26

$$
NMZ524>526-539-540-251200-
SOUTHCENTRAL MOUNTAINS

CITY           SKY/WX    TMP DP  RH WIND       PRES   REMARKS
RUIDOSO        NOT AVBL

$$
NMZ527>531-251200-
NORTHEAST HIGHLANDS/NORTHEAST PLAINS

CITY           SKY/WX    TMP DP  RH WIND       PRES   REMARKS
LAS VEGAS      FAIR      12   7  80 CALM      30.01S
RATON          FAIR      12   6  77 W7        30.02R WCI   1
CLAYTON        FAIR      16  11  80 W8        30.06F WCI   5

$$
NMZ532>537-251200-
EASTCENTRAL PLAINS

CITY           SKY/WX    TMP DP  RH WIND       PRES   REMARKS
TUCUMCARI      FAIR      17  11  77 N6        30.10S WCI   9
CANNON AFB     NOT AVBL
CLOVIS AIRPORT FAIR      19  10  68 CALM      30.10S

$$
NMZ028-029-538-251200-
SOUTHEAST PLAINS

CITY           SKY/WX    TMP DP  RH WIND       PRES   REMARKS
ROSWELL        FAIR      31   7  36 CALM        N/A
ARTESIA        FAIR      32  12  43 SW6       30.11R WCI  26
CARLSBAD       FAIR      36  19  50 NE5       30.10R WCI  32
HOBBS          FAIR      30  16  55 NE7       30.12R WCI  23


$$




USA.gov is the U.S. government's official web portal to all federal, state and local government web resources and services.